• In Hungary
  • List of Countries
  • For 7 days
  • Water Temperature
  • Satellite Maps
  • Weather Map
  • News
  • Weather Widgets
  • user-avatar
    Login

    Hourly Weather San Fernando de Apure

    Today, 25 April, Wednesday

    Time Temperature Precipitation Wind Pressure Humidity
    00:00 +30°C° 0 mm 1 mps 753 mmHg 58%
    01:00 +30°C° 0 mm 1 mps 753 mmHg 59%
    02:00 +29°C° 0 mm 1 mps 753 mmHg 61%
    03:00 +29°C° 0 mm 1 mps 754 mmHg 62%
    04:00 +29°C° 0 mm 1 mps 754 mmHg 64%
    05:00 +28°C° 0 mm 1 mps 754 mmHg 65%
    06:00 +29°C° 0 mm 2 mps 754 mmHg 64%
    07:00 +30°C° 0 mm 2 mps 755 mmHg 63%
    08:00 +30°C° 0 mm 3 mps 755 mmHg 62%
    09:00 +33°C° 0 mm 3 mps 755 mmHg 56%
    10:00 +34°C° 0 mm 3 mps 755 mmHg 51%
    11:00 +36°C° 0 mm 3 mps 755 mmHg 45%
    12:00 +37°C° 0 mm 3 mps 754 mmHg 41%
    13:00 +38°C° 0 mm 2 mps 754 mmHg 37%
    14:00 +39°C° 0 mm 2 mps 753 mmHg 33%
    15:00 +39°C° 0 mm 2 mps 752 mmHg 33%
    16:00 +39°C° 0 mm 1 mps 751 mmHg 32%
    17:00 +39°C° 0 mm 1 mps 751 mmHg 31%
    18:00 +36°C° 0 mm 1 mps 751 mmHg 35%
    19:00 +35°C° 0 mm 1 mps 751 mmHg 38%
    20:00 +33°C° 0 mm 1 mps 752 mmHg 41%
    21:00 +33°C° 0 mm 1 mps 752 mmHg 44%
    22:00 +32°C° 0 mm 1 mps 752 mmHg 47%
    23:00 +32°C° 0 mm 1 mps 753 mmHg 49%

    Tomorrow, 26 April, Thursday

    Time Temperature Precipitation Wind Pressure Humidity
    00:00 +31°C° 0 mm 1 mps 753 mmHg 53%
    01:00 +31°C° 0 mm 1 mps 753 mmHg 56%
    02:00 +29°C° 0 mm 0 mps 752 mmHg 60%
    03:00 +30°C° 0.7 mm 1 mps 753 mmHg 62%
    04:00 +30°C° 0.7 mm 1 mps 753 mmHg 64%
    05:00 +29°C° 0.7 mm 1 mps 753 mmHg 67%
    06:00 +30°C° 0.1 mm 1 mps 753 mmHg 66%
    07:00 +30°C° 0.1 mm 2 mps 754 mmHg 65%
    08:00 +31°C° 0.1 mm 2 mps 754 mmHg 64%
    09:00 +32°C° 0.4 mm 2 mps 755 mmHg 61%
    10:00 +34°C° 0.4 mm 2 mps 755 mmHg 58%
    11:00 +35°C° 0.4 mm 2 mps 755 mmHg 55%
    12:00 +35°C° 0.3 mm 2 mps 754 mmHg 52%
    13:00 +36°C° 0.3 mm 2 mps 753 mmHg 50%
    14:00 +36°C° 0.3 mm 1 mps 753 mmHg 47%
    15:00 +35°C° 0.2 mm 1 mps 752 mmHg 49%
    16:00 +36°C° 0.2 mm 2 mps 752 mmHg 51%
    17:00 +35°C° 0.2 mm 2 mps 751 mmHg 53%
    18:00 +34°C° 0.1 mm 2 mps 752 mmHg 58%
    19:00 +32°C° 0.1 mm 2 mps 752 mmHg 64%
    20:00 +31°C° 0.1 mm 2 mps 752 mmHg 69%
    21:00 +30°C° 0 mm 2 mps 753 mmHg 71%
    22:00 +30°C° 0 mm 2 mps 754 mmHg 73%
    23:00 +29°C° 0 mm 2 mps 754 mmHg 75%

    Day after tomorrow, 27 April, Friday

    Time Temperature Precipitation Wind Pressure Humidity
    00:00 +29°C° 1.1 mm 1 mps 754 mmHg 77%
    01:00 +28°C° 1.1 mm 1 mps 753 mmHg 80%
    02:00 +28°C° 1.1 mm 1 mps 753 mmHg 82%
    03:00 +28°C° 4.5 mm 1 mps 753 mmHg 84%
    04:00 +27°C° 4.5 mm 1 mps 753 mmHg 86%
    05:00 +27°C° 4.5 mm 1 mps 753 mmHg 88%
    06:00 +27°C° 10.2 mm 1 mps 753 mmHg 90%
    07:00 +27°C° 10.2 mm 1 mps 754 mmHg 91%
    08:00 +26°C° 10.2 mm 1 mps 755 mmHg 93%
    09:00 +27°C° 3.8 mm 1 mps 755 mmHg 92%
    10:00 +27°C° 3.8 mm 1 mps 755 mmHg 91%
    11:00 +27°C° 3.8 mm 1 mps 756 mmHg 90%
    12:00 +28°C° 0.6 mm 1 mps 755 mmHg 86%
    13:00 +29°C° 0.6 mm 1 mps 754 mmHg 82%
    14:00 +30°C° 0.6 mm 1 mps 754 mmHg 77%
    15:00 +30°C° 0.6 mm 1 mps 753 mmHg 78%
    16:00 +30°C° 0.6 mm 1 mps 753 mmHg 78%
    17:00 +29°C° 0.6 mm 1 mps 752 mmHg 78%
    18:00 +29°C° 0.1 mm 1 mps 752 mmHg 81%
    19:00 +28°C° 0.1 mm 1 mps 753 mmHg 85%
    20:00 +28°C° 0.1 mm 1 mps 753 mmHg 88%
    21:00 +27°C° 0 mm 1 mps 754 mmHg 88%
    22:00 +27°C° 0 mm 1 mps 754 mmHg 88%
    23:00 +27°C° 0 mm 1 mps 754 mmHg 89%

    28 April, Saturday

    Time Temperature Precipitation Wind Pressure Humidity
    00:00 +25°C° 0.2 mm 0 mps 754 mmHg 89%
    01:00 +25°C° 0.2 mm 0 mps 754 mmHg 89%
    02:00 +25°C° 0.2 mm 0 mps 753 mmHg 89%
    03:00 +25°C° 0.4 mm 0 mps 753 mmHg 90%
    04:00 +25°C° 0.4 mm 0 mps 753 mmHg 90%
    05:00 +24°C° 0.4 mm 0 mps 754 mmHg 90%
    06:00 +27°C° 0.4 mm 1 mps 754 mmHg 88%
    07:00 +27°C° 0.4 mm 1 mps 755 mmHg 85%
    08:00 +28°C° 0.4 mm 1 mps 755 mmHg 83%
    09:00 +29°C° 0.6 mm 2 mps 755 mmHg 78%
    10:00 +30°C° 0.6 mm 2 mps 755 mmHg 73%
    11:00 +33°C° 0.6 mm 3 mps 755 mmHg 68%
    12:00 +32°C° 0.6 mm 2 mps 754 mmHg 65%
    13:00 +34°C° 0.6 mm 2 mps 754 mmHg 62%
    14:00 +35°C° 0.6 mm 2 mps 753 mmHg 60%
    15:00 +34°C° 0.9 mm 2 mps 752 mmHg 61%
    16:00 +33°C° 0.9 mm 1 mps 752 mmHg 63%
    17:00 +33°C° 0.9 mm 1 mps 751 mmHg 64%
    18:00 +32°C° 0.3 mm 1 mps 752 mmHg 68%
    19:00 +31°C° 0.3 mm 1 mps 752 mmHg 72%
    20:00 +30°C° 0.3 mm 1 mps 753 mmHg 75%
    21:00 +29°C° 0.4 mm 1 mps 753 mmHg 76%
    22:00 +29°C° 0.4 mm 1 mps 754 mmHg 78%
    23:00 +29°C° 0.4 mm 1 mps 754 mmHg 79%

    29 April, Sunday

    Time Temperature Precipitation Wind Pressure Humidity
    00:00 +29°C° 1.6 mm 1 mps 754 mmHg 80%
    01:00 +28°C° 1.6 mm 1 mps 754 mmHg 81%
    02:00 +28°C° 1.6 mm 1 mps 753 mmHg 83%
    03:00 +28°C° 1.8 mm 1 mps 753 mmHg 83%
    04:00 +28°C° 1.8 mm 1 mps 754 mmHg 84%
    05:00 +27°C° 1.8 mm 1 mps 754 mmHg 85%
    06:00 +28°C° 0.4 mm 1 mps 754 mmHg 83%
    07:00 +28°C° 0.4 mm 1 mps 755 mmHg 82%
    08:00 +28°C° 0.4 mm 1 mps 755 mmHg 80%
    09:00 +30°C° 0.1 mm 2 mps 756 mmHg 75%
    10:00 +31°C° 0.1 mm 3 mps 756 mmHg 69%
    11:00 +33°C° 0.1 mm 3 mps 756 mmHg 63%
    12:00 +34°C° 0.6 mm 3 mps 755 mmHg 61%
    13:00 +35°C° 0.6 mm 3 mps 754 mmHg 58%
    14:00 +35°C° 0.6 mm 2 mps 753 mmHg 56%
    15:00 +35°C° 0.1 mm 2 mps 752 mmHg 55%
    16:00 +35°C° 0.1 mm 2 mps 752 mmHg 54%
    17:00 +34°C° 0.1 mm 1 mps 751 mmHg 54%
    18:00 +33°C° 0.1 mm 1 mps 752 mmHg 58%
    19:00 +32°C° 0.1 mm 1 mps 752 mmHg 62%
    20:00 +30°C° 0.1 mm 1 mps 753 mmHg 67%
    21:00 +30°C° 0.1 mm 1 mps 753 mmHg 69%
    22:00 +30°C° 0.1 mm 1 mps 754 mmHg 71%
    23:00 +29°C° 0.1 mm 1 mps 754 mmHg 74%

    30 April, Monday

    Time Temperature Precipitation Wind Pressure Humidity
    00:00 +29°C° 1.8 mm 1 mps 754 mmHg 76%
    01:00 +28°C° 1.8 mm 1 mps 753 mmHg 79%
    02:00 +28°C° 1.8 mm 1 mps 753 mmHg 81%
    03:00 +28°C° 1.7 mm 1 mps 753 mmHg 82%
    04:00 +27°C° 1.7 mm 1 mps 753 mmHg 84%
    05:00 +27°C° 1.7 mm 1 mps 753 mmHg 85%
    06:00 +27°C° 1.2 mm 2 mps 754 mmHg 84%
    07:00 +28°C° 1.2 mm 2 mps 754 mmHg 84%
    08:00 +28°C° 1.2 mm 2 mps 755 mmHg 83%
    09:00 +29°C° 0.7 mm 2 mps 755 mmHg 79%
    10:00 +30°C° 0.7 mm 3 mps 755 mmHg 75%
    11:00 +31°C° 0.7 mm 3 mps 755 mmHg 72%
    12:00 +31°C° 0.3 mm 3 mps 754 mmHg 69%
    13:00 +33°C° 0.3 mm 3 mps 754 mmHg 67%
    14:00 +33°C° 0.3 mm 3 mps 753 mmHg 64%
    15:00 +33°C° 0 mm 3 mps 752 mmHg 66%
    16:00 +31°C° 0 mm 2 mps 752 mmHg 67%
    17:00 +31°C° 0 mm 2 mps 752 mmHg 69%
    18:00 +30°C° 0 mm 2 mps 752 mmHg 72%
    19:00 +29°C° 0 mm 1 mps 753 mmHg 75%
    20:00 +28°C° 0 mm 1 mps 753 mmHg 78%
    21:00 +28°C° 0.3 mm 1 mps 753 mmHg 79%
    22:00 +28°C° 0.3 mm 1 mps 754 mmHg 80%
    23:00 +27°C° 0.3 mm 1 mps 754 mmHg 81%
    Show more